owner,sensor,date,latitude,longitude,vertical_datum,wind_speed,wind_to_direction,wind_speed_of_gust,qcFlag 
WAVCIS,ioos:station:WAVCIS:CSI09:1,2010-09-01T00:00:00Z,29.1015,-89.9782,0.0,7.84,89.0,,'11111222,11111222,99999999' 
WAVCIS,ioos:station:WAVCIS:CSI09:1,2010-09-01T01:00:00Z,29.1015,-89.9782,0.0,7.26,89.0,,'11111222,11111222,99999999' 
WAVCIS,ioos:station:WAVCIS:CSI09:1,2010-09-01T02:00:00Z,29.1015,-89.9782,0.0,7.25,85.0,,'11111222,11111222,99999999' 
WAVCIS,ioos:station:WAVCIS:CSI09:1,2010-09-01T03:00:00Z,29.1015,-89.9782,0.0,8.32,82.0,,'11111222,11111222,99999999' 
WAVCIS,ioos:station:WAVCIS:CSI09:1,2010-09-01T04:00:00Z,29.1015,-89.9782,0.0,8.31,83.0,,'11111222,11111222,99999999' 
WAVCIS,ioos:station:WAVCIS:CSI09:1,2010-09-01T05:00:00Z,29.1015,-89.9782,0.0,7.18,88.0,,'11111222,11111222,99999999' 
WAVCIS,ioos:station:WAVCIS:CSI09:1,2010-09-01T06:00:00Z,29.1015,-89.9782,0.0,6.481,94.0,,'11111222,11111222,99999999' 
WAVCIS,ioos:station:WAVCIS:CSI09:1,2010-09-01T07:00:00Z,29.1015,-89.9782,0.0,6.417,102.0,,'11111222,11111222,99999999' 
WAVCIS,ioos:station:WAVCIS:CSI09:1,2010-09-01T08:00:00Z,29.1015,-89.9782,0.0,6.247,98.0,,'11111222,11111222,99999999' 
WAVCIS,ioos:station:WAVCIS:CSI09:1,2010-09-01T09:00:00Z,29.1015,-89.9782,0.0,7.73,98.0,,'11111222,11111222,99999999' 
WAVCIS,ioos:station:WAVCIS:CSI09:1,2010-09-01T10:00:00Z,29.1015,-89.9782,0.0,7.29,88.0,,'11111222,11111222,99999999' 
WAVCIS,ioos:station:WAVCIS:CSI09:1,2010-09-01T11:00:00Z,29.1015,-89.9782,0.0,8.01,80.0,,'11111222,11111222,99999999' 
WAVCIS,ioos:station:WAVCIS:CSI09:1,2010-09-01T12:00:00Z,29.1015,-89.9782,0.0,7.82,82.0,,'11111222,11111222,99999999' 
WAVCIS,ioos:station:WAVCIS:CSI09:1,2010-09-01T13:00:00Z,29.1015,-89.9782,0.0,6.984,88.0,,'11111222,11111222,99999999' 
WAVCIS,ioos:station:WAVCIS:CSI09:1,2010-09-01T14:00:00Z,29.1015,-89.9782,0.0,7.31,77.0,,'11111222,11111222,99999999' 
WAVCIS,ioos:station:WAVCIS:CSI09:1,2010-09-01T15:00:00Z,29.1015,-89.9782,0.0,7.83,81.0,,'11111222,11111222,99999999' 
WAVCIS,ioos:station:WAVCIS:CSI09:1,2010-09-01T16:00:00Z,29.1015,-89.9782,0.0,8.18,80.0,,'11111222,11111222,99999999' 
WAVCIS,ioos:station:WAVCIS:CSI09:1,2010-09-01T17:00:00Z,29.1015,-89.9782,0.0,6.934,83.0,,'11111222,11111222,99999999' 
WAVCIS,ioos:station:WAVCIS:CSI09:1,2010-09-01T18:00:00Z,29.1015,-89.9782,0.0,6.879,90.0,,'11111222,11111222,99999999' 
WAVCIS,ioos:station:WAVCIS:CSI09:1,2010-09-01T19:00:00Z,29.1015,-89.9782,0.0,6.488,83.0,,'11111222,11111222,99999999' 
WAVCIS,ioos:station:WAVCIS:CSI09:1,2010-09-01T20:00:00Z,29.1015,-89.9782,0.0,6.415,88.0,,'11111222,11111222,99999999' 
WAVCIS,ioos:station:WAVCIS:CSI09:1,2010-09-01T21:00:00Z,29.1015,-89.9782,0.0,5.629,105.0,,'11111222,11111222,99999999' 
WAVCIS,ioos:station:WAVCIS:CSI09:1,2010-09-01T22:00:00Z,29.1015,-89.9782,0.0,5.249,97.0,,'11111222,11111222,99999999' 
WAVCIS,ioos:station:WAVCIS:CSI09:1,2010-09-01T23:00:00Z,29.1015,-89.9782,0.0,6.031,89.0,,'11111222,11111222,99999999' 
WAVCIS,ioos:station:WAVCIS:CSI09:1,2010-09-02T00:00:00Z,29.1015,-89.9782,0.0,6.398,84.0,,'11111222,11111222,99999999' 
WAVCIS,ioos:station:WAVCIS:CSI09:1,2010-09-02T01:00:00Z,29.1015,-89.9782,0.0,7.66,80.0,,'11111222,11111222,99999999' 
WAVCIS,ioos:station:WAVCIS:CSI09:1,2010-09-02T02:00:00Z,29.1015,-89.9782,0.0,8.37,84.0,,'11111222,11111222,99999999' 
WAVCIS,ioos:station:WAVCIS:CSI09:1,2010-09-02T03:00:00Z,29.1015,-89.9782,0.0,8.88,80.0,,'11111222,11111222,99999999' 
WAVCIS,ioos:station:WAVCIS:CSI09:1,2010-09-02T04:00:00Z,29.1015,-89.9782,0.0,8.07,87.0,,'11111222,11111222,99999999' 
WAVCIS,ioos:station:WAVCIS:CSI09:1,2010-09-02T05:00:00Z,29.1015,-89.9782,0.0,8.32,85.0,,'11111222,11111222,99999999' 
WAVCIS,ioos:station:WAVCIS:CSI09:1,2010-09-02T06:00:00Z,29.1015,-89.9782,0.0,6.58,92.0,,'11111222,11111222,99999999' 
WAVCIS,ioos:station:WAVCIS:CSI09:1,2010-09-02T07:00:00Z,29.1015,-89.9782,0.0,6.431,101.0,,'11111222,11111222,99999999' 
WAVCIS,ioos:station:WAVCIS:CSI09:1,2010-09-02T08:00:00Z,29.1015,-89.9782,0.0,6.461,92.0,,'11111222,11111222,99999999' 
WAVCIS,ioos:station:WAVCIS:CSI09:1,2010-09-02T09:00:00Z,29.1015,-89.9782,0.0,5.434,94.0,,'11111222,11111222,99999999' 
WAVCIS,ioos:station:WAVCIS:CSI09:1,2010-09-02T10:00:00Z,29.1015,-89.9782,0.0,4.558,91.0,,'11111222,11111222,99999999' 
WAVCIS,ioos:station:WAVCIS:CSI09:1,2010-09-02T11:00:00Z,29.1015,-89.9782,0.0,5.056,91.0,,'11111222,11111222,99999999' 
WAVCIS,ioos:station:WAVCIS:CSI09:1,2010-09-02T12:00:00Z,29.1015,-89.9782,0.0,5.484,85.0,,'11111222,11111222,99999999' 
WAVCIS,ioos:station:WAVCIS:CSI09:1,2010-09-02T13:00:00Z,29.1015,-89.9782,0.0,7.21,111.0,,'11111222,11111222,99999999' 
WAVCIS,ioos:station:WAVCIS:CSI09:1,2010-09-02T14:00:00Z,29.1015,-89.9782,0.0,8.23,114.0,,'11111222,11111222,99999999' 
WAVCIS,ioos:station:WAVCIS:CSI09:1,2010-09-02T15:00:00Z,29.1015,-89.9782,0.0,7.62,122.0,,'11111222,11111222,99999999' 
WAVCIS,ioos:station:WAVCIS:CSI09:1,2010-09-02T16:00:00Z,29.1015,-89.9782,0.0,6.5,123.0,,'11111222,11111222,99999999' 
WAVCIS,ioos:station:WAVCIS:CSI09:1,2010-09-02T17:00:00Z,29.1015,-89.9782,0.0,5.653,118.0,,'11111222,11111222,99999999' 
WAVCIS,ioos:station:WAVCIS:CSI09:1,2010-09-02T18:00:00Z,29.1015,-89.9782,0.0,3.975,98.0,,'11111222,11111222,99999999' 
WAVCIS,ioos:station:WAVCIS:CSI09:1,2010-09-02T19:00:00Z,29.1015,-89.9782,0.0,3.781,98.0,,'11111222,11111222,99999999' 
WAVCIS,ioos:station:WAVCIS:CSI09:1,2010-09-02T20:00:00Z,29.1015,-89.9782,0.0,4.131,87.0,,'11111222,11111222,99999999' 
WAVCIS,ioos:station:WAVCIS:CSI09:1,2010-09-02T21:00:00Z,29.1015,-89.9782,0.0,3.497,97.0,,'11111222,11111222,99999999' 
WAVCIS,ioos:station:WAVCIS:CSI09:1,2010-09-02T22:00:00Z,29.1015,-89.9782,0.0,3.588,93.0,,'11111222,11111222,99999999' 
WAVCIS,ioos:station:WAVCIS:CSI09:1,2010-09-02T23:00:00Z,29.1015,-89.9782,0.0,4.261,102.0,,'11111222,11111222,99999999' 
WAVCIS,ioos:station:WAVCIS:CSI09:1,2010-09-03T00:00:00Z,29.1015,-89.9782,0.0,4.03,106.0,,'11111222,11111222,99999999' 
WAVCIS,ioos:station:WAVCIS:CSI09:1,2010-09-03T01:00:00Z,29.1015,-89.9782,0.0,3.69,100.0,,'11111222,11111222,99999999' 
WAVCIS,ioos:station:WAVCIS:CSI09:1,2010-09-03T02:00:00Z,29.1015,-89.9782,0.0,4.108,110.0,,'11111222,11111222,99999999' 
WAVCIS,ioos:station:WAVCIS:CSI09:1,2010-09-03T03:00:00Z,29.1015,-89.9782,0.0,4.397,126.0,,'11111222,11111222,99999999' 
WAVCIS,ioos:station:WAVCIS:CSI09:1,2010-09-03T04:00:00Z,29.1015,-89.9782,0.0,5.483,136.0,,'11111222,11111222,99999999' 
WAVCIS,ioos:station:WAVCIS:CSI09:1,2010-09-03T05:00:00Z,29.1015,-89.9782,0.0,5.413,138.0,,'11111222,11111222,99999999' 
WAVCIS,ioos:station:WAVCIS:CSI09:1,2010-09-03T06:00:00Z,29.1015,-89.9782,0.0,4.402,146.0,,'11111222,11111222,99999999' 
WAVCIS,ioos:station:WAVCIS:CSI09:1,2010-09-03T07:00:00Z,29.1015,-89.9782,0.0,3.884,149.0,,'11111222,11111222,99999999' 
WAVCIS,ioos:station:WAVCIS:CSI09:1,2010-09-03T08:00:00Z,29.1015,-89.9782,0.0,1.85,133.0,,'11111222,11111222,99999999' 
WAVCIS,ioos:station:WAVCIS:CSI09:1,2010-09-03T09:00:00Z,29.1015,-89.9782,0.0,2.518,129.0,,'11111222,11111222,99999999' 
WAVCIS,ioos:station:WAVCIS:CSI09:1,2010-09-03T10:00:00Z,29.1015,-89.9782,0.0,2.287,127.0,,'11111222,11111222,99999999' 
WAVCIS,ioos:station:WAVCIS:CSI09:1,2010-09-03T11:00:00Z,29.1015,-89.9782,0.0,2.239,75.0,,'11111222,11111222,99999999' 
WAVCIS,ioos:station:WAVCIS:CSI09:1,2010-09-03T12:00:00Z,29.1015,-89.9782,0.0,2.683,53.0,,'11111222,11111222,99999999' 
WAVCIS,ioos:station:WAVCIS:CSI09:1,2010-09-03T13:00:00Z,29.1015,-89.9782,0.0,2.835,65.0,,'11111222,11111222,99999999' 
WAVCIS,ioos:station:WAVCIS:CSI09:1,2010-09-03T14:00:00Z,29.1015,-89.9782,0.0,3.507,72.0,,'11111222,11111222,99999999' 
WAVCIS,ioos:station:WAVCIS:CSI09:1,2010-09-03T15:00:00Z,29.1015,-89.9782,0.0,3.724,68.0,,'11111222,11111222,99999999' 
WAVCIS,ioos:station:WAVCIS:CSI09:1,2010-09-03T16:00:00Z,29.1015,-89.9782,0.0,3.388,79.0,,'11111222,11111222,99999999' 
WAVCIS,ioos:station:WAVCIS:CSI09:1,2010-09-03T17:00:00Z,29.1015,-89.9782,0.0,3.047,85.0,,'11111222,11111222,99999999' 
WAVCIS,ioos:station:WAVCIS:CSI09:1,2010-09-03T18:00:00Z,29.1015,-89.9782,0.0,3.03,68.0,,'11111222,11111222,99999999' 
WAVCIS,ioos:station:WAVCIS:CSI09:1,2010-09-03T19:00:00Z,29.1015,-89.9782,0.0,1.959,103.0,,'11111222,11111222,99999999' 
WAVCIS,ioos:station:WAVCIS:CSI09:1,2010-09-03T20:00:00Z,29.1015,-89.9782,0.0,1.729,82.0,,'11111222,11111222,99999999' 
WAVCIS,ioos:station:WAVCIS:CSI09:1,2010-09-03T21:00:00Z,29.1015,-89.9782,0.0,2.294,83.0,,'11111222,11111222,99999999' 
WAVCIS,ioos:station:WAVCIS:CSI09:1,2010-09-03T22:00:00Z,29.1015,-89.9782,0.0,2.419,103.0,,'11111222,11111222,99999999' 
WAVCIS,ioos:station:WAVCIS:CSI09:1,2010-09-03T23:00:00Z,29.1015,-89.9782,0.0,3.111,89.0,,'11111222,11111222,99999999' 
WAVCIS,ioos:station:WAVCIS:CSI09:1,2010-09-04T00:00:00Z,29.1015,-89.9782,0.0,3.727,112.0,,'11111222,11111222,99999999' 
WAVCIS,ioos:station:WAVCIS:CSI09:1,2010-09-04T01:00:00Z,29.1015,-89.9782,0.0,2.168,121.0,,'11111222,11111222,99999999' 
WAVCIS,ioos:station:WAVCIS:CSI09:1,2010-09-04T02:00:00Z,29.1015,-89.9782,0.0,2.52,141.0,,'11111222,11111222,99999999' 
WAVCIS,ioos:station:WAVCIS:CSI09:1,2010-09-04T03:00:00Z,29.1015,-89.9782,0.0,2.86,144.0,,'11111222,11111222,99999999' 
WAVCIS,ioos:station:WAVCIS:CSI09:1,2010-09-04T04:00:00Z,29.1015,-89.9782,0.0,2.753,160.0,,'11111222,11111222,99999999' 
WAVCIS,ioos:station:WAVCIS:CSI09:1,2010-09-04T05:00:00Z,29.1015,-89.9782,0.0,4.021,160.0,,'11111222,11111222,99999999' 
WAVCIS,ioos:station:WAVCIS:CSI09:1,2010-09-04T06:00:00Z,29.1015,-89.9782,0.0,2.509,165.0,,'11111222,11111222,99999999' 
WAVCIS,ioos:station:WAVCIS:CSI09:1,2010-09-04T07:00:00Z,29.1015,-89.9782,0.0,1.605,168.0,,'11111222,11111222,99999999' 
WAVCIS,ioos:station:WAVCIS:CSI09:1,2010-09-04T08:00:00Z,29.1015,-89.9782,0.0,0.836,248.0,,'11111222,11111222,99999999' 
WAVCIS,ioos:station:WAVCIS:CSI09:1,2010-09-04T09:00:00Z,29.1015,-89.9782,0.0,1.166,309.0,,'11111222,11111222,99999999' 
WAVCIS,ioos:station:WAVCIS:CSI09:1,2010-09-04T10:00:00Z,29.1015,-89.9782,0.0,1.344,302.0,,'11111222,11111222,99999999' 
WAVCIS,ioos:station:WAVCIS:CSI09:1,2010-09-04T11:00:00Z,29.1015,-89.9782,0.0,2.988,344.0,,'11111222,11111222,99999999' 
WAVCIS,ioos:station:WAVCIS:CSI09:1,2010-09-04T12:00:00Z,29.1015,-89.9782,0.0,3.505,353.0,,'11111222,11111222,99999999' 
WAVCIS,ioos:station:WAVCIS:CSI09:1,2010-09-04T13:00:00Z,29.1015,-89.9782,0.0,4.636,356.0,,'11111222,11111222,99999999' 
WAVCIS,ioos:station:WAVCIS:CSI09:1,2010-09-04T14:00:00Z,29.1015,-89.9782,0.0,5.398,346.0,,'11111222,11111222,99999999' 
WAVCIS,ioos:station:WAVCIS:CSI09:1,2010-09-04T15:00:00Z,29.1015,-89.9782,0.0,5.686,0.0,,'11111222,11111222,99999999' 
WAVCIS,ioos:station:WAVCIS:CSI09:1,2010-09-04T16:00:00Z,29.1015,-89.9782,0.0,5.881,37.0,,'11111222,11111222,99999999' 
WAVCIS,ioos:station:WAVCIS:CSI09:1,2010-09-04T17:00:00Z,29.1015,-89.9782,0.0,7.18,48.0,,'11111222,11111222,99999999' 
WAVCIS,ioos:station:WAVCIS:CSI09:1,2010-09-04T18:00:00Z,29.1015,-89.9782,0.0,6.663,62.0,,'11111222,11111222,99999999' 
WAVCIS,ioos:station:WAVCIS:CSI09:1,2010-09-04T19:00:00Z,29.1015,-89.9782,0.0,6.46,66.0,,'11111222,11111222,99999999' 
WAVCIS,ioos:station:WAVCIS:CSI09:1,2010-09-04T20:00:00Z,29.1015,-89.9782,0.0,5.193,68.0,,'11111222,11111222,99999999' 
WAVCIS,ioos:station:WAVCIS:CSI09:1,2010-09-04T21:00:00Z,29.1015,-89.9782,0.0,4.599,54.0,,'11111222,11111222,99999999' 
WAVCIS,ioos:station:WAVCIS:CSI09:1,2010-09-04T22:00:00Z,29.1015,-89.9782,0.0,4.282,51.0,,'11111222,11111222,99999999' 
WAVCIS,ioos:station:WAVCIS:CSI09:1,2010-09-04T23:00:00Z,29.1015,-89.9782,0.0,3.961,53.0,,'11111222,11111222,99999999' 
WAVCIS,ioos:station:WAVCIS:CSI09:1,2010-09-05T00:00:00Z,29.1015,-89.9782,0.0,4.175,62.0,,'11111222,11111222,99999999' 
WAVCIS,ioos:station:WAVCIS:CSI09:1,2010-09-05T01:00:00Z,29.1015,-89.9782,0.0,4.479,62.0,,'11111222,11111222,99999999' 
WAVCIS,ioos:station:WAVCIS:CSI09:1,2010-09-05T02:00:00Z,29.1015,-89.9782,0.0,5.127,53.0,,'11111222,11111222,99999999' 
WAVCIS,ioos:station:WAVCIS:CSI09:1,2010-09-05T03:00:00Z,29.1015,-89.9782,0.0,5.111,63.0,,'11111222,11111222,99999999' 
WAVCIS,ioos:station:WAVCIS:CSI09:1,2010-09-05T04:00:00Z,29.1015,-89.9782,0.0,4.493,56.0,,'11111222,11111222,99999999' 
WAVCIS,ioos:station:WAVCIS:CSI09:1,2010-09-05T05:00:00Z,29.1015,-89.9782,0.0,3.719,45.0,,'11111222,11111222,99999999' 
WAVCIS,ioos:station:WAVCIS:CSI09:1,2010-09-05T06:00:00Z,29.1015,-89.9782,0.0,4.159,34.0,,'11111222,11111222,99999999' 
WAVCIS,ioos:station:WAVCIS:CSI09:1,2010-09-05T07:00:00Z,29.1015,-89.9782,0.0,5.187,47.0,,'11111222,11111222,99999999' 
WAVCIS,ioos:station:WAVCIS:CSI09:1,2010-09-05T08:00:00Z,29.1015,-89.9782,0.0,5.55,45.0,,'11111222,11111222,99999999' 
WAVCIS,ioos:station:WAVCIS:CSI09:1,2010-09-05T09:00:00Z,29.1015,-89.9782,0.0,5.718,50.0,,'11111222,11111222,99999999' 
WAVCIS,ioos:station:WAVCIS:CSI09:1,2010-09-05T10:00:00Z,29.1015,-89.9782,0.0,5.766,58.0,,'11111222,11111222,99999999' 
WAVCIS,ioos:station:WAVCIS:CSI09:1,2010-09-05T11:00:00Z,29.1015,-89.9782,0.0,5.735,65.0,,'11111222,11111222,99999999' 
WAVCIS,ioos:station:WAVCIS:CSI09:1,2010-09-05T12:00:00Z,29.1015,-89.9782,0.0,6.243,76.0,,'11111222,11111222,99999999' 
WAVCIS,ioos:station:WAVCIS:CSI09:1,2010-09-05T13:00:00Z,29.1015,-89.9782,0.0,6.261,69.0,,'11111222,11111222,99999999' 
WAVCIS,ioos:station:WAVCIS:CSI09:1,2010-09-05T14:00:00Z,29.1015,-89.9782,0.0,6.386,71.0,,'11111222,11111222,99999999' 
WAVCIS,ioos:station:WAVCIS:CSI09:1,2010-09-05T15:00:00Z,29.1015,-89.9782,0.0,6.548,72.0,,'11111222,11111222,99999999' 
WAVCIS,ioos:station:WAVCIS:CSI09:1,2010-09-05T16:00:00Z,29.1015,-89.9782,0.0,5.245,88.0,,'11111222,11111222,99999999' 
WAVCIS,ioos:station:WAVCIS:CSI09:1,2010-09-05T17:00:00Z,29.1015,-89.9782,0.0,5.935,110.0,,'11111222,11111222,99999999' 
WAVCIS,ioos:station:WAVCIS:CSI09:1,2010-09-05T18:00:00Z,29.1015,-89.9782,0.0,7.56,165.0,,'11111222,11111222,99999999' 
WAVCIS,ioos:station:WAVCIS:CSI09:1,2010-09-05T19:00:00Z,29.1015,-89.9782,0.0,5.517,178.0,,'11111222,11111222,99999999' 
WAVCIS,ioos:station:WAVCIS:CSI09:1,2010-09-05T20:00:00Z,29.1015,-89.9782,0.0,5.148,142.0,,'11111222,11111222,99999999' 
WAVCIS,ioos:station:WAVCIS:CSI09:1,2010-09-05T21:00:00Z,29.1015,-89.9782,0.0,4.511,151.0,,'11111222,11111222,99999999' 
WAVCIS,ioos:station:WAVCIS:CSI09:1,2010-09-05T22:00:00Z,29.1015,-89.9782,0.0,4.769,146.0,,'11111222,11111222,99999999' 
WAVCIS,ioos:station:WAVCIS:CSI09:1,2010-09-05T23:00:00Z,29.1015,-89.9782,0.0,3.486,131.0,,'11111222,11111222,99999999' 
WAVCIS,ioos:station:WAVCIS:CSI09:1,2010-09-06T00:00:00Z,29.1015,-89.9782,0.0,2.379,120.0,,'11111222,11111222,99999999' 
WAVCIS,ioos:station:WAVCIS:CSI09:1,2010-09-06T01:00:00Z,29.1015,-89.9782,0.0,2.112,106.0,,'11111222,11111222,99999999' 
WAVCIS,ioos:station:WAVCIS:CSI09:1,2010-09-06T02:00:00Z,29.1015,-89.9782,0.0,3.545,117.0,,'11111222,11111222,99999999' 
WAVCIS,ioos:station:WAVCIS:CSI09:1,2010-09-06T03:00:00Z,29.1015,-89.9782,0.0,3.83,122.0,,'11111222,11111222,99999999' 
WAVCIS,ioos:station:WAVCIS:CSI09:1,2010-09-06T04:00:00Z,29.1015,-89.9782,0.0,4.866,127.0,,'11111222,11111222,99999999' 
WAVCIS,ioos:station:WAVCIS:CSI09:1,2010-09-06T05:00:00Z,29.1015,-89.9782,0.0,5.164,123.0,,'11111222,11111222,99999999' 
WAVCIS,ioos:station:WAVCIS:CSI09:1,2010-09-06T06:00:00Z,29.1015,-89.9782,0.0,6.138,131.0,,'11111222,11111222,99999999' 
WAVCIS,ioos:station:WAVCIS:CSI09:1,2010-09-06T07:00:00Z,29.1015,-89.9782,0.0,6.636,129.0,,'11111222,11111222,99999999' 
WAVCIS,ioos:station:WAVCIS:CSI09:1,2010-09-06T08:00:00Z,29.1015,-89.9782,0.0,6.802,131.0,,'11111222,11111222,99999999' 
WAVCIS,ioos:station:WAVCIS:CSI09:1,2010-09-06T09:00:00Z,29.1015,-89.9782,0.0,6.278,140.0,,'11111222,11111222,99999999' 
WAVCIS,ioos:station:WAVCIS:CSI09:1,2010-09-06T10:00:00Z,29.1015,-89.9782,0.0,5.66,135.0,,'11111222,11111222,99999999' 
WAVCIS,ioos:station:WAVCIS:CSI09:1,2010-09-06T11:00:00Z,29.1015,-89.9782,0.0,6.28,128.0,,'11111222,11111222,99999999' 
WAVCIS,ioos:station:WAVCIS:CSI09:1,2010-09-06T12:00:00Z,29.1015,-89.9782,0.0,6.864,129.0,,'11111222,11111222,99999999' 
WAVCIS,ioos:station:WAVCIS:CSI09:1,2010-09-06T13:00:00Z,29.1015,-89.9782,0.0,6.91,132.0,,'11111222,11111222,99999999' 
WAVCIS,ioos:station:WAVCIS:CSI09:1,2010-09-06T14:00:00Z,29.1015,-89.9782,0.0,6.473,129.0,,'11111222,11111222,99999999' 
WAVCIS,ioos:station:WAVCIS:CSI09:1,2010-09-06T15:00:00Z,29.1015,-89.9782,0.0,7.13,126.0,,'11111222,11111222,99999999' 
WAVCIS,ioos:station:WAVCIS:CSI09:1,2010-09-06T16:00:00Z,29.1015,-89.9782,0.0,6.544,127.0,,'11111222,11111222,99999999' 
WAVCIS,ioos:station:WAVCIS:CSI09:1,2010-09-06T17:00:00Z,29.1015,-89.9782,0.0,7.15,132.0,,'11111222,11111222,99999999' 
WAVCIS,ioos:station:WAVCIS:CSI09:1,2010-09-06T18:00:00Z,29.1015,-89.9782,0.0,7.01,129.0,,'11111222,11111222,99999999' 
WAVCIS,ioos:station:WAVCIS:CSI09:1,2010-09-06T19:00:00Z,29.1015,-89.9782,0.0,6.654,131.0,,'11111222,11111222,99999999' 
WAVCIS,ioos:station:WAVCIS:CSI09:1,2010-09-06T20:00:00Z,29.1015,-89.9782,0.0,5.986,134.0,,'11111222,11111222,99999999' 
WAVCIS,ioos:station:WAVCIS:CSI09:1,2010-09-06T21:00:00Z,29.1015,-89.9782,0.0,5.213,130.0,,'11111222,11111222,99999999' 
WAVCIS,ioos:station:WAVCIS:CSI09:1,2010-09-06T22:00:00Z,29.1015,-89.9782,0.0,5.245,129.0,,'11111222,11111222,99999999' 
WAVCIS,ioos:station:WAVCIS:CSI09:1,2010-09-06T23:00:00Z,29.1015,-89.9782,0.0,6.056,126.0,,'11111222,11111222,99999999' 
WAVCIS,ioos:station:WAVCIS:CSI09:1,2010-09-07T00:00:00Z,29.1015,-89.9782,0.0,6.12,126.0,,'11111222,11111222,99999999' 
WAVCIS,ioos:station:WAVCIS:CSI09:1,2010-09-07T01:00:00Z,29.1015,-89.9782,0.0,6.922,118.0,,'11111222,11111222,99999999' 
WAVCIS,ioos:station:WAVCIS:CSI09:1,2010-09-07T02:00:00Z,29.1015,-89.9782,0.0,7.48,112.0,,'11111222,11111222,99999999' 
WAVCIS,ioos:station:WAVCIS:CSI09:1,2010-09-07T03:00:00Z,29.1015,-89.9782,0.0,6.861,122.0,,'11111222,11111222,99999999' 
WAVCIS,ioos:station:WAVCIS:CSI09:1,2010-09-07T04:00:00Z,29.1015,-89.9782,0.0,7.91,127.0,,'11111222,11111222,99999999' 
WAVCIS,ioos:station:WAVCIS:CSI09:1,2010-09-07T05:00:00Z,29.1015,-89.9782,0.0,8.5,130.0,,'11111222,11111222,99999999' 
WAVCIS,ioos:station:WAVCIS:CSI09:1,2010-09-07T06:00:00Z,29.1015,-89.9782,0.0,9.32,130.0,,'11111222,11111222,99999999' 
WAVCIS,ioos:station:WAVCIS:CSI09:1,2010-09-07T07:00:00Z,29.1015,-89.9782,0.0,8.81,133.0,,'11111222,11111222,99999999' 
WAVCIS,ioos:station:WAVCIS:CSI09:1,2010-09-07T08:00:00Z,29.1015,-89.9782,0.0,8.03,142.0,,'11111222,11111222,99999999' 
WAVCIS,ioos:station:WAVCIS:CSI09:1,2010-09-07T09:00:00Z,29.1015,-89.9782,0.0,8.9,138.0,,'11111222,11111222,99999999' 
WAVCIS,ioos:station:WAVCIS:CSI09:1,2010-09-07T10:00:00Z,29.1015,-89.9782,0.0,8.21,138.0,,'11111222,11111222,99999999' 
WAVCIS,ioos:station:WAVCIS:CSI09:1,2010-09-07T11:00:00Z,29.1015,-89.9782,0.0,7.22,140.0,,'11111222,11111222,99999999' 
WAVCIS,ioos:station:WAVCIS:CSI09:1,2010-09-07T12:00:00Z,29.1015,-89.9782,0.0,7.28,134.0,,'11111222,11111222,99999999' 
WAVCIS,ioos:station:WAVCIS:CSI09:1,2010-09-07T13:00:00Z,29.1015,-89.9782,0.0,5.768,135.0,,'11111222,11111222,99999999' 
WAVCIS,ioos:station:WAVCIS:CSI09:1,2010-09-07T14:00:00Z,29.1015,-89.9782,0.0,6.046,128.0,,'11111222,11111222,99999999' 
WAVCIS,ioos:station:WAVCIS:CSI09:1,2010-09-07T15:00:00Z,29.1015,-89.9782,0.0,6.339,122.0,,'11111222,11111222,99999999' 
WAVCIS,ioos:station:WAVCIS:CSI09:1,2010-09-07T16:00:00Z,29.1015,-89.9782,0.0,5.869,118.0,,'11111222,11111222,99999999' 
WAVCIS,ioos:station:WAVCIS:CSI09:1,2010-09-07T17:00:00Z,29.1015,-89.9782,0.0,5.811,109.0,,'11111222,11111222,99999999' 
WAVCIS,ioos:station:WAVCIS:CSI09:1,2010-09-07T18:00:00Z,29.1015,-89.9782,0.0,5.622,104.0,,'11111222,11111222,99999999' 
WAVCIS,ioos:station:WAVCIS:CSI09:1,2010-09-07T19:00:00Z,29.1015,-89.9782,0.0,6.002,112.0,,'11111222,11111222,99999999' 
WAVCIS,ioos:station:WAVCIS:CSI09:1,2010-09-07T20:00:00Z,29.1015,-89.9782,0.0,6.31,110.0,,'11111222,11111222,99999999' 
WAVCIS,ioos:station:WAVCIS:CSI09:1,2010-09-07T21:00:00Z,29.1015,-89.9782,0.0,5.403,105.0,,'11111222,11111222,99999999' 
WAVCIS,ioos:station:WAVCIS:CSI09:1,2010-09-07T22:00:00Z,29.1015,-89.9782,0.0,4.524,100.0,,'11111222,11111222,99999999' 
WAVCIS,ioos:station:WAVCIS:CSI09:1,2010-09-07T23:00:00Z,29.1015,-89.9782,0.0,6.275,119.0,,'11111222,11111222,99999999' 
WAVCIS,ioos:station:WAVCIS:CSI09:1,2010-09-08T00:00:00Z,29.1015,-89.9782,0.0,5.42,109.0,,'11111222,11111222,99999999' 
WAVCIS,ioos:station:WAVCIS:CSI09:1,2010-09-08T01:00:00Z,29.1015,-89.9782,0.0,5.834,114.0,,'11111222,11111222,99999999' 
WAVCIS,ioos:station:WAVCIS:CSI09:1,2010-09-08T02:00:00Z,29.1015,-89.9782,0.0,5.636,104.0,,'11111222,11111222,99999999' 
WAVCIS,ioos:station:WAVCIS:CSI09:1,2010-09-08T03:00:00Z,29.1015,-89.9782,0.0,5.445,103.0,,'11111222,11111222,99999999' 
WAVCIS,ioos:station:WAVCIS:CSI09:1,2010-09-08T04:00:00Z,29.1015,-89.9782,0.0,6.823,111.0,,'11111222,11111222,99999999' 
WAVCIS,ioos:station:WAVCIS:CSI09:1,2010-09-08T05:00:00Z,29.1015,-89.9782,0.0,5.821,103.0,,'11111222,11111222,99999999' 
WAVCIS,ioos:station:WAVCIS:CSI09:1,2010-09-08T06:00:00Z,29.1015,-89.9782,0.0,5.752,123.0,,'11111222,11111222,99999999' 
WAVCIS,ioos:station:WAVCIS:CSI09:1,2010-09-08T07:00:00Z,29.1015,-89.9782,0.0,6.142,117.0,,'11111222,11111222,99999999' 
WAVCIS,ioos:station:WAVCIS:CSI09:1,2010-09-08T08:00:00Z,29.1015,-89.9782,0.0,5.769,127.0,,'11111222,11111222,99999999' 
WAVCIS,ioos:station:WAVCIS:CSI09:1,2010-09-08T09:00:00Z,29.1015,-89.9782,0.0,4.847,130.0,,'11111222,11111222,99999999' 
WAVCIS,ioos:station:WAVCIS:CSI09:1,2010-09-08T10:00:00Z,29.1015,-89.9782,0.0,4.902,112.0,,'11111222,11111222,99999999' 
WAVCIS,ioos:station:WAVCIS:CSI09:1,2010-09-08T11:00:00Z,29.1015,-89.9782,0.0,3.926,97.0,,'11111222,11111222,99999999' 
WAVCIS,ioos:station:WAVCIS:CSI09:1,2010-09-08T12:00:00Z,29.1015,-89.9782,0.0,3.174,98.0,,'11111222,11111222,99999999' 
WAVCIS,ioos:station:WAVCIS:CSI09:1,2010-09-08T13:00:00Z,29.1015,-89.9782,0.0,3.877,93.0,,'11111222,11111222,99999999' 
WAVCIS,ioos:station:WAVCIS:CSI09:1,2010-09-08T14:00:00Z,29.1015,-89.9782,0.0,3.808,109.0,,'11111222,11111222,99999999' 
WAVCIS,ioos:station:WAVCIS:CSI09:1,2010-09-08T15:00:00Z,29.1015,-89.9782,0.0,4.007,94.0,,'11111222,11111222,99999999' 
WAVCIS,ioos:station:WAVCIS:CSI09:1,2010-09-08T16:00:00Z,29.1015,-89.9782,0.0,5.606,85.0,,'11111222,11111222,99999999' 
WAVCIS,ioos:station:WAVCIS:CSI09:1,2010-09-08T17:00:00Z,29.1015,-89.9782,0.0,5.361,87.0,,'11111222,11111222,99999999' 
WAVCIS,ioos:station:WAVCIS:CSI09:1,2010-09-08T18:00:00Z,29.1015,-89.9782,0.0,4.372,88.0,,'11111222,11111222,99999999' 
WAVCIS,ioos:station:WAVCIS:CSI09:1,2010-09-08T19:00:00Z,29.1015,-89.9782,0.0,3.567,97.0,,'11111222,11111222,99999999' 
WAVCIS,ioos:station:WAVCIS:CSI09:1,2010-09-08T20:00:00Z,29.1015,-89.9782,0.0,3.9,97.0,,'11111222,11111222,99999999' 
WAVCIS,ioos:station:WAVCIS:CSI09:1,2010-09-08T21:00:00Z,29.1015,-89.9782,0.0,3.718,106.0,,'11111222,11111222,99999999' 
WAVCIS,ioos:station:WAVCIS:CSI09:1,2010-09-08T22:00:00Z,29.1015,-89.9782,0.0,3.606,102.0,,'11111222,11111222,99999999' 
WAVCIS,ioos:station:WAVCIS:CSI09:1,2010-09-08T23:00:00Z,29.1015,-89.9782,0.0,4.259,110.0,,'11111222,11111222,99999999' 
WAVCIS,ioos:station:WAVCIS:CSI09:1,2010-09-09T00:00:00Z,29.1015,-89.9782,0.0,4.398,105.0,,'11111222,11111222,99999999' 
WAVCIS,ioos:station:WAVCIS:CSI09:1,2010-09-09T01:00:00Z,29.1015,-89.9782,0.0,4.8,114.0,,'11111222,11111222,99999999' 
WAVCIS,ioos:station:WAVCIS:CSI09:1,2010-09-09T02:00:00Z,29.1015,-89.9782,0.0,4.523,117.0,,'11111222,11111222,99999999' 
WAVCIS,ioos:station:WAVCIS:CSI09:1,2010-09-09T03:00:00Z,29.1015,-89.9782,0.0,4.264,100.0,,'11111222,11111222,99999999' 
WAVCIS,ioos:station:WAVCIS:CSI09:1,2010-09-09T04:00:00Z,29.1015,-89.9782,0.0,3.895,106.0,,'11111222,11111222,99999999' 
WAVCIS,ioos:station:WAVCIS:CSI09:1,2010-09-09T05:00:00Z,29.1015,-89.9782,0.0,4.204,126.0,,'11111222,11111222,99999999' 
WAVCIS,ioos:station:WAVCIS:CSI09:1,2010-09-09T06:00:00Z,29.1015,-89.9782,0.0,4.038,131.0,,'11111222,11111222,99999999' 
WAVCIS,ioos:station:WAVCIS:CSI09:1,2010-09-09T07:00:00Z,29.1015,-89.9782,0.0,3.116,143.0,,'11111222,11111222,99999999' 